This is the latest recevied weather packets stored in our database for station/object K0QJ. If no packets are shown the sender has not sent any weather packets the latest 10 day(s).
| Time | Temp. | Humidity | Pressure | Rain* | Wind** | Luminosity | Snow |
|---|---|---|---|---|---|---|---|
| 1777817631 | 15° C | 56% | 1013.1 hPa | 0 mm | - | 104 W/m² | - |
| 1777817327 | 14.44° C | 56% | 1013.1 hPa | 0 mm | - | 52 W/m² | - |
| 1777817025 | 14.44° C | 56% | 1013.3 hPa | 0 mm | - | 50 W/m² | - |
| 1777816720 | 13.89° C | 56% | 1013.4 hPa | 0 mm | - | 51 W/m² | - |
| 1777816418 | 13.89° C | 56% | 1013.6 hPa | 0 mm | - | 131 W/m² | - |
| 1777816116 | 13.89° C | 57% | 1013.6 hPa | 0 mm | - | 46 W/m² | - |
| 1777815813 | 13.33° C | 57% | 1013.6 hPa | 0 mm | - | 46 W/m² | - |
| 1777815511 | 13.33° C | 56% | 1013.7 hPa | 0 mm | - | 49 W/m² | - |
| 1777815208 | 13.33° C | 55% | 1013.5 hPa | 0 mm | - | 42 W/m² | - |
| 1777814904 | 12.78° C | 56% | 1013.6 hPa | 0 mm | - | 41 W/m² | - |
| 1777814601 | 12.78° C | 55% | 1013.7 hPa | 0 mm | - | 37 W/m² | - |
| 1777814298 | 12.78° C | 55% | 1013.7 hPa | 0 mm | - | 41 W/m² | - |
| 1777813994 | 12.78° C | 56% | 1013.9 hPa | 0 mm | - | 34 W/m² | - |
| 1777813692 | 12.78° C | 55% | 1013.5 hPa | 0 mm | - | 36 W/m² | - |
| 1777813389 | 12.22° C | 54% | 1013.5 hPa | 0 mm | - | 32 W/m² | - |
| 1777813087 | 12.22° C | 55% | 1013.5 hPa | 0 mm | - | 30 W/m² | - |
| 1777812784 | 12.22° C | 55% | 1013.7 hPa | 0 mm | - | 29 W/m² | - |
| 1777812480 | 12.22° C | 55% | 1013.6 hPa | 0 mm | - | 28 W/m² | - |
| 1777812178 | 11.67° C | 55% | 1013.9 hPa | 0 mm | - | 26 W/m² | - |
| 1777811876 | 11.67° C | 55% | 1013.7 hPa | 0 mm | - | 26 W/m² | - |
| 1777811575 | 11.67° C | 55% | 1014 hPa | 0 mm | - | 24 W/m² | - |
| 1777811270 | 11.67° C | 55% | 1013.8 hPa | 0 mm | - | 24 W/m² | - |
| 1777810967 | 11.67° C | 54% | 1014 hPa | 0 mm | - | 22 W/m² | - |
| 1777810664 | 11.67° C | 54% | 1013.7 hPa | 0 mm | - | 20 W/m² | - |
| 1777810361 | 11.11° C | 54% | 1013.7 hPa | 0 mm | - | 19 W/m² | - |
* Rain latest hour (hover to see other rain measurements)
** Current wind speed in m/s (hover to see current wind gust speed)